Dewpoint
56 56 56 55 55 55 55 55 54 54 54 55 54 54 53 54 54 54 54 54 54 53 52 53 53 53 53 53 53 52 52 53 53 53 53 53 54 54 54 54 55 55
55 55 54 54 54 54 54 54 54 54 53 54 54 53 53 53 53 53 52 52 52 52 52 52 52 51 51 51 52 51 51 51 52 51 52 52 52 53 53 53 54 53
54 54 54 54 53 54 53 54 54 53 53 53 53 53 52 52 52 52 52 52 52 51 51 51 51 50 50 51 51 51 50 50 50 50 51 50 51 51 52 52 52 53
53 53 53 53 53 53 53 53 53 52 53 52 51 51 51 52 52 51 51 51 50 50 51 50 50 50 49 50 51 50 50 49 49 50 50 50 50 50 50 51 51 51
52 52 51 51 51 51 51 51 51 50 51 50 51 52 51 51 50 49 50 49 50 49 50 49 49 50 50 50 49 49 49 48 49 49 48 48 50 49 49 49 50 50
51 49 49 50 50 51 51 50 49 49 49 51 51 50 50 49 48 48 48 48 47 47 47 47 47 48 49 48 48 48 48 47 48 48 47 47 48 48 48 49 49 48
50 51 50 49 50 50 51 51 50 50 51 50 49 49 49 48 47 47 46 46 44 44 44 44 45 46 48 48 47 47 46 47 45 46 46 46 47 47 47 48 48 47
50 50 50 49 49 50 50 50 51 51 51 49 49 48 47 46 46 46 45 44 43 41 42 41 42 43 45 46 46 46 46 46 46 44 44 45 46 45 46 47 48 46
49 49 49 49 50 50 49 49 50 50 48 49 47 46 47 46 45 44 43 42 41 41 40 40 40 41 43 44 45 45 44 45 45 44 44 44 45 44 43 45 45 46
48 47 48 49 50 49 49 49 48 48 47 47 46 46 45 45 44 41 41 41 41 39 39 38 39 40 41 43 44 44 44 44 43 44 43 43 44 43 43 44 44 44
47 47 48 50 49 48 48 48 48 47 46 45 46 45 44 44 43 41 40 40 40 38 38 38 39 40 41 42 43 45 44 44 43 42 43 42 43 43 45 44 43 43
46 48 48 48 48 48 48 47 46 47 46 45 43 43 44 43 43 41 39 38 37 37 38 38 39 40 41 41 42 43 44 44 44 43 42 41 41 43 42 43 43 42
47 47 47 47 47 47 46 45 45 46 44 43 43 42 42 41 40 40 40 39 38 38 38 39 40 40 41 42 42 42 42 42 42 42 42 42 41 40 41 42 41 41
46 46 46 45 45 45 44 44 43 44 44 44 43 42 42 40 40 40 40 38 39 39 39 40 39 39 40 40 41 42 43 41 41 41 41 40 42 39 40 40 41 41
45 45 45 44 43 44 44 43 42 43 42 42 42 42 43 41 40 39 39 38 38 39 38 39 40 41 41 41 40 40 41 41 40 39 40 39 39 38 40 40 40 40
43 44 43 43 43 42 42 42 41 42 42 41 41 42 42 42 41 40 38 38 38 38 39 41 40 41 40 39 39 40 41 44 40 40 39 38 39 40 40 40 40 40
41 41 41 41 41 41 41 40 40 41 41 41 43 43 43 42 42 41 40 39 37 38 39 40 40 39 38 37 37 39 41 43 39 39 38 38 39 39 39 39 40 39
39 39 39 39 39 38 38 38 40 40 41 41 42 43 43 43 43 42 42 41 39 38 39 39 39 38 36 37 37 37 38 42 40 39 39 38 38 38 38 39 39 39
37 38 38 38 38 38 39 39 39 39 40 40 41 43 43 43 42 43 42 42 40 38 39 38 38 37 36 37 37 36 37 40 38 38 37 37 38 38 38 38 38 38
36 37 37 37 38 38 39 38 39 39 41 41 42 42 42 41 43 43 43 41 40 39 38 38 37 37 36 36 36 36 36 38 37 38 38 37 36 37 38 38 38 37
36 36 37 37 37 38 40 39 39 40 39 39 40 40 40 40 41 42 43 42 41 39 39 38 38 36 36 36 36 36 36 40 39 38 37 37 37 37 37 38 38 38
36 37 38 37 38 39 39 39 40 40 40 40 39 39 40 40 40 41 41 42 42 40 38 37 37 35 35 36 36 36 36 40 38 38 37 36 36 35 35 39 37 37
36 37 37 37 37 38 38 40 40 39 39 39 39 39 39 39 40 39 40 40 41 41 39 37 36 36 35 36 35 36 38 40 38 35 35 36 36 36 34 38 38 36
36 36 36 37 37 37 38 39 39 39 39 39 39 38 38 39 39 39 38 38 39 39 39 38 36 36 35 36 35 36 37 40 37 37 36 35 36 36 36 36 41 42
37 37 38 37 37 38 39 39 38 38 38 39 38 38 38 38 38 39 39 38 38 38 40 39 37 36 36 35 35 35 37 39 36 36 37 36 35 35 36 35 35 39
38 38 38 37 37 38 38 39 39 39 40 39 38 36 36 36 37 39 39 39 39 37 36 37 38 36 37 35 36 36 36 38 38 37 38 37 35 33 33 34 34 35